Location: ?????????
(14.0768°N, 101.4539°E)
Time: 06:32:06
(UTC+00:00)

Daily predictions for brighter satellites

Satellite Brightness Start Highest point End
(mag) Time Altitude Azimuth Time Altitude Azimuth Time Altitude Azimuth
CZ-4 R/B 1.7 12:00:05 10° S 12:04:17 72° W 12:08:24 10° NNW
Cosmos 2228 Rocket 4.1 12:01:21 10° SSW 12:05:34 46° W 12:09:50 10° N
CZ-3C R/B 0.3 12:02:52 10° WNW 12:08:06 77° NNE 12:08:14 75° NE
NOAA 11 4.1 12:07:29 10° SSE 12:12:46 56° ENE 12:18:02 10° N
CSL-04 Debris 4.1 12:08:28 10° SSE 12:13:57 90° WSW 12:19:26 10° NNW
NOSS 2-2 (D) 3.5 12:10:13 10° SSW 12:14:17 65° WNW 12:14:58 52° NNW
Delta 198 4.3 12:13:21 10° WNW 12:19:45 58° NNE 12:20:38 52° NE
Cosmos 2237 4.2 12:15:55 10° S 12:21:29 56° ESE 12:21:51 55° E
NOSS 3-4 (A) 4.1 12:22:04 10° S 12:26:32 35° SE 12:26:32 35° SE
NOSS 3-4 (C) 4.1 12:22:11 10° S 12:26:36 35° SE 12:26:36 35° SE
CSL-04 Rocket 4.0 12:22:33 10° S 12:27:55 63° WSW 12:33:12 10° NNW
GPS 2-15 Rocket1 3.4 12:25:28 10° WNW 12:29:44 59° NNW 12:29:44 59° NNW
Atlas Centaur 2 3.1 12:23:43 10° SW 12:31:32 47° SSE 12:32:46 44° ESE
Cosmos 2360 Rocket 2.0 12:31:31 10° SSW 12:37:07 89° W 12:37:28 80° NNE
Centaur D-1AR AC-36 3.2 12:03:33 10° WSW 12:38:24 68° NNW 12:40:07 52° NE
SL-16 R/B 4.0 12:35:28 10° SW 12:40:10 27° WNW 12:44:53 10° NNW
SeaSat 1 3.3 12:36:20 10° S 12:41:04 48° WSW 12:45:48 10° NW
Meteor 1-25 Rocket 4.1 12:41:35 82° N 12:41:51 90° E 12:47:40 10° S
Centaur D-1A AC-31 3.3 12:40:58 10° NW 12:42:39 20° NNW 12:42:39 20° NNW
Meteor 1-20 Rocket 4.2 12:38:52 10° N 12:44:57 80° SSW 12:50:20 10° S
Cosmos 2322 Rocket 4.0 12:43:40 10° SW 12:48:18 27° WNW 12:52:11 13° NNW
COSMOS 2455 4.3 12:46:51 10° SW 12:52:07 32° WNW 12:55:09 21° NNW
ADEOS Rocket 3.0 12:52:48 65° WNW 12:53:02 66° WNW 12:58:28 10° SSW
ATLAS 2AS CENTAUR R/B 3.2 12:57:41 10° SW 13:05:07 64° WNW 13:06:31 56° NNW
ATLAS 5 CENTAUR R/B 3.3 13:01:42 10° WNW 13:07:53 67° NNE 13:09:31 62° NE
Milstar 3 3.8 20:24:22 55° NE 20:24:22 55° NE 20:30:33 10° E
Cosmos 1697 Rocket 4.2 20:45:22 29° ENE 20:45:48 29° ENE 20:50:36 10° SE
CZ-2C R/B 4.4 20:47:17 23° ESE 20:47:17 23° ESE 20:49:55 10° SSE
Meteosat 1 Rocket2 4.4 21:01:10 61° SSW 21:02:16 69° SSE 21:12:11 10° ENE
ISS -0.6 21:08:05 14° ESE 21:08:05 14° ESE 21:08:45 10° ESE
GOES 2 Rocket 3.9 21:13:15 81° W 21:13:36 85° SSW 21:21:43 10° ESE
Cosmos 1153 Rocket 4.5 21:08:13 10° S 21:14:22 78° E 21:20:28 10° N
Cosmos 2221 3.5 21:15:15 45° ESE 21:15:15 45° ESE 21:18:41 10° SSE
Ariane H10 4.4 21:22:29 10° SSE 21:22:29 10° SSE 21:22:32 10° SSE
Cosmos 2123 Rocket 3.8 21:25:51 61° NW 21:26:47 70° W 21:33:00 10° S
Meteor 1-31 Rocket 3.5 21:30:15 48° SSE 21:30:15 48° SSE 21:33:15 10° S
CZ-4B R/B 4.3 21:26:14 10° NNE 21:30:39 69° E 21:34:55 10° S
ASTRO E2 4.4 21:34:08 24° S 21:34:08 24° S 21:36:24 10° SSE
Centaur AC-42 2.2 21:32:35 54° SW 21:33:35 78° SSE 21:44:30 10° ENE
Okean 3 Rocket 3.7 21:31:14 10° S 21:35:46 75° E 21:40:15 10° N
Meteor 2-2 Rocket 4.5 21:31:24 10° N 21:37:00 68° E 21:42:41 10° SSE
GPS 2-12 Rocket1 3.0 21:39:32 66° N 21:39:47 68° NNE 21:44:16 10° E
Atlas Centaur 2 1.5 21:40:21 51° NE 21:40:21 51° NE 21:43:30 10° ESE
CZ-3B R/B 2.8 21:42:04 35° NW 21:43:08 37° NNW 21:47:56 10° NE
Cosmos 2150 Rocket 4.0 21:41:50 10° SSW 21:47:17 85° W 21:52:45 10° NNE
Cosmos 1869 3.8 21:44:34 17° N 21:47:28 57° E 21:51:22 10° SSE
GPS 2-18 Rocket1 4.3 21:48:01 31° N 21:48:01 31° N 21:51:37 10° ENE
Cosmos 1980 Rocket 2.4 21:46:20 12° N 21:51:31 69° ENE 21:57:07 10° SSE
ATLAS 2AS CENTAUR RB 4.0 21:51:06 10° S 21:53:51 18° SE 22:00:05 10° E
CZ-4B R/B 2.8 21:55:59 50° W 21:55:59 50° W 21:59:28 10° SSW
Cosmos 1408 3.2 21:52:56 10° S 21:56:35 57° E 22:00:11 10° NNE
Cosmos 1459 Rocket 3.8 21:53:11 10° S 21:59:16 76° W 22:05:28 10° N
ASC 2 Rocket 4.3 21:57:28 27° WNW 22:02:35 82° SSW 22:08:35 10° ESE
Cosmos 1356 Rocket 3.3 22:02:08 13° N 22:05:54 73° W 22:10:04 10° S
Cosmos 372 Rocket 4.0 22:01:05 10° SSW 22:06:07 52° WNW 22:11:08 10° N
MOS 1-B 4.3 22:03:54 10° NNE 22:09:42 88° ESE 22:15:28 10° SSW
Cosmos 2016 Rocket 4.0 22:04:00 10° S 22:10:11 86° E 22:16:27 10° N
GPS 2-05 Rocket1 2.9 22:12:04 35° NNW 22:12:04 35° NNW 22:14:12 10° NE
SWIFT 2.9 22:10:59 28° WNW 22:12:37 42° N 22:16:40 10° ENE
Meteor PRIRODA 3.9 22:10:32 10° N 22:13:58 42° WNW 22:17:23 10° SSW
Milstar 3 Cent rocket 3.5 22:10:06 20° W 22:16:18 42° SW 22:21:46 10° SSE
ASTEX 1 3.6 22:12:09 10° S 22:16:53 48° W 22:21:39 10° NNW
ALOS 2.8 22:12:25 10° NNE 22:17:02 64° E 22:21:39 10° S
Cosmos 158 Rocket 4.0 22:13:34 10° N 22:18:25 74° ENE 22:23:16 10° SSE
FALCON 9 R/B 3.5 22:14:13 16° WSW 22:19:00 65° NNW 22:40:18 10° NE
PSLV R/B 4.0 22:15:12 10° N 22:19:02 49° WNW 22:22:57 10° SSW
SJ-12 3.8 22:15:41 10° N 22:19:49 84° WNW 22:23:56 10° SSW
METEOR-M 4.4 22:15:15 10° NNE 22:20:34 73° ESE 22:25:54 10° S
FENGYUN 3A 3.9 22:17:50 10° NNE 22:23:13 74° ESE 22:28:35 10° S
CZ-2C R/B 4.3 22:26:40 10° WSW 22:26:40 10° WSW 22:26:50 10° WSW
Intercosmos 25 Rocket 4.4 22:16:29 10° N 22:24:29 85° W 22:29:12 10° S
SEDSat Delta rocket 2.9 22:23:14 16° WSW 22:26:16 55° NNW 22:30:31 10° NE
USA 267 3.7 22:21:57 10° NE 22:28:27 68° SE 22:34:56 10° SSW
Cosmos 2112 Rocket 4.3 22:24:19 10° NNW 22:29:23 45° W 22:34:28 10° S
Cosmos 1697 Rocket 4.0 22:27:11 16° WNW 22:29:26 20° WSW 22:33:25 10° SSW
Okean O Rocket 1.7 22:27:16 10° NNE 22:31:37 79° E 22:35:58 10° S
CZ-4B R/B 3.4 22:27:40 10° NNE 22:33:09 78° ESE 22:38:45 10° S
Cosmos 1743 Rocket 3.6 22:29:39 10° S 22:34:00 81° E 22:38:19 10° N
CZ-3B R/B 3.7 22:30:43 12° NW 22:34:18 39° NNE 22:45:56 10° E
Cosmos 1818 4.3 22:29:37 10° S 22:34:55 57° ESE 22:40:14 10° NNE
Meteor 2-20 Rocket 4.5 22:29:12 10° NNW 22:35:15 62° W 22:41:17 10° S
Cosmos 1680 Rocket 4.3 22:30:48 10° NW 22:35:26 31° W 22:40:04 10° SSW
Cosmos 1151 Rocket 4.0 22:31:18 10° N 22:35:30 49° E 22:39:40 10° SSE
SL-08 R/B 4.5 22:31:02 10° SSW 22:37:07 63° W 22:43:08 10° N
IUS-9 SRM-1 3.4 22:36:42 13° W 22:39:24 61° SSW 22:51:26 10° ESE
Cosmos 1328 Rocket 3.8 22:38:20 10° N 22:42:37 71° E 22:46:54 10° S
STARLINK 1040 4.1 22:42:45 10° SSW 22:45:06 36° SE 22:47:28 10° NE
ATLAS 2AS CENTAUR R/B 4.4 22:39:07 10° N 22:45:14 30° ENE 22:50:53 10° ESE
Cosmos 1825 3.2 22:49:53 10° SW 22:53:00 24° W 22:56:05 10° NNW
Cosmos 972 Rocket 4.1 22:50:31 10° SSW 22:55:14 49° WNW 23:00:08 10° N
COBE Rocket 4.5 22:51:39 10° S 22:56:29 41° W 23:01:18 10° NNW
Chandra Rocket (1) 4.4 22:49:15 10° WNW 23:01:34 32° N 23:05:55 10° ENE
